Regional Weather Roundup
Issued by NWS

Home | Current Version | Previous Version | Graphics & Text | Print | Product List | Glossary On
Versions: 1 2 3 4 5 6 7 8 9 10 11 12 13 14 15 16 17 18 19 20 21 22 23 24 25 26 27 28 29 30 31 32 33 34 35 36 37 38 39 40 41 42 43 44 45 46 47 48 49 50
000
ASUS43 KDMX 271507
RWRIA

WEATHER ROUNDUP FOR IOWA
NATIONAL WEATHER SERVICE DES MOINES IA
1000 AM CDT SUN JUL 27 2014

NOTE: "FAIR" INDICATES FEW OR NO CLOUDS BELOW 12,000 FEET WITH NO
SIGNIFICANT WEATHER AND/OR OBSTRUCTIONS TO VISIBILITY.

* - THESE STATIONS ARE NOT NWS STATIONS...THUS NOT UNDER NWS
QUALITY CONTROL.  THEY ALSO DO NOT REPORT WEATHER SUCH
AS PRECIPITATION OR FOG.

IAZ001>003-012>014-020>022-031>034-043>046-271600-
   NORTHWEST IOWA

CITY           SKY/WX    TMP DP  RH WIND       PRES   REMARKS
CARROLL *      SUNNY     72  59  64 NW16G24   30.01S
CHEROKEE *     SUNNY     68  59  73 NW15G21   30.04R
DENISON *      SUNNY     70  59  68 NW10G21   30.03S
LE MARS *      SUNNY     70  57  64 NW14G23   30.06S
ORANGE CITY *  MOSUNNY   70  55  60 NW13G22   30.06R
SHELDON *      PTSUNNY   66  57  72 NW17G23   30.03R
SIOUX CITY     LGT RAIN  73  59  61 NW15      30.06R
SPENCER        CLOUDY    67  58  72 NW14G23   30.02R
STORM LAKE *   SUNNY     68  61  77 NW18      30.03S
$$

IAZ055>058-069>071-079>083-090>094-271600-
   SOUTHWEST IOWA

CITY           SKY/WX    TMP DP  RH WIND       PRES   REMARKS
ATLANTIC *     SUNNY     73  59  60 NW15G23   30.03S
AUDUBON *      SUNNY     73  63  68 W8G17     30.05R
CLARINDA *     SUNNY     77  61  57 NW13G18   30.06S
COUNCIL BLFS * SUNNY     75  59  57 NW9G18    30.06S
CRESTON *      SUNNY     75  57  53 NW17G24   30.03S
HARLAN  *      SUNNY     72  59  64 NW15      30.09R
LAMONI         SUNNY     77  59  53 NW15G22   30.01R
RED OAK *      SUNNY     75  61  60 NW10G18   30.06R
SHENANDOAH *   SUNNY     77  63  61 NW9       30.07R
$$

IAZ047>049-059>061-072>074-084-271600-
   CENTRAL IOWA

CITY           SKY/WX    TMP DP  RH WIND       PRES   REMARKS
AMES           SUNNY     72  58  61 NW16G23   29.95S
ANKENY *       SUNNY     75  59  57 NW13G22   29.96S
CHARITON *     SUNNY     75  59  57 NW15G24   29.98S
DES MOINES     SUNNY     77  57  50 NW24G30   29.96S
GRINNELL*      SUNNY     73  59  60 W17G24    29.94R
KNOXVILLE *    SUNNY     75  61  60 W14G22    29.94F
MARSHALLTOWN   SUNNY     72  60  66 NW18      29.92R
PELLA *        SUNNY     77  63  61 W10G18    29.95F
PERRY *          N/A     72  57  60 NW15      30.00R
$$

IAZ004>006-015-016-023>025-035-036-271600-
   NORTH CENTRAL IOWA

CITY           SKY/WX    TMP DP  RH WIND       PRES   REMARKS
ALGONA *       CLOUDY    68  57  68 NW16G26   29.98R
CLARION *      PTSUNNY   68  57  68 NW21G28   29.96R
ESTHERVILLE    PTSUNNY   66  57  72 NW16G28   29.98R
FORT DODGE *   MOSUNNY   70  57  64 NW9G21    29.99R
MASON CITY     PTSUNNY   68  56  65 NW24G32   29.93R
FOREST CITY *  CLOUDY    68  55  64 NE18G26   29.93S
IOWA FALLS *     N/A     70  57  64 NW21G26   29.95R
$$

IAZ007>011-017>019-026>030-037>042-050>054-066-271600-
   NORTHEAST IOWA

CITY           SKY/WX    TMP DP  RH WIND       PRES   REMARKS
CEDAR RAPIDS   SUNNY     73  58  59 NW21G28   29.88R
CHARLES CITY * PTSUNNY   68  57  68 NW21G31   29.90R
CLINTON *      SUNNY     73  63  68 NW14G22   29.86S
DECORAH *      PTSUNNY   68  57  68 NW8G23    29.84R
DUBUQUE        SUNNY     72  60  66 W16G26    29.84R
MONTICELLO *   SUNNY     73  61  64 NW16G26   29.85R
OELWEIN *      SUNNY     70  59  68 NW17G25   29.88S
WATERLOO       MOSUNNY   71  57  61 NW22G36   29.88S
$$

IAZ064-065-067-068-078-271600-
   EAST CENTRAL IOWA

CITY           SKY/WX    TMP DP  RH WIND       PRES   REMARKS
DAVENPORT      SUNNY     76  63  64 NW12      29.85S
IOWA CITY      SUNNY     76  59  55 NW15G25   29.89R
MT. PLEASANT * SUNNY     77  57  50 NW10G21   29.90S
MUSCATINE *    SUNNY     79  61  53 NW16      29.87S HX  80
QUAD CITIES    SUNNY     79  62  56 W16G23    29.84R HX  80
$$

IAZ062-063-075>077-085>089-095>099-271600-
   SOUTHEAST IOWA

CITY           SKY/WX    TMP DP  RH WIND       PRES   REMARKS
BURLINGTON     SUNNY     78  65  63 NW17G28   29.89R HX  80
FAIRFIELD *    SUNNY     77  63  61 NW9G16    29.92S
FORT MADISON * SUNNY     79  70  73 NW14G21   29.91R HX  81
KEOKUK *       SUNNY     79  66  65 NW13G22   29.90R HX  81
OSKALOOSA *      N/A     75  63  64 W15       29.94S
CENTERVILLE *  SUNNY     77  63  61 NW10G18   29.98S
OTTUMWA        SUNNY     76  61  59 NW13G21   29.93S
WASHINGTON *   SUNNY     75  63  64 NW13G22   29.90S
$$

ABBREVIATIONS USED IN REMARKS
   TC - TEMPERATURES IN CELSIUS
  WCI - WIND CHILL INDEX
   HX - HEAT INDEX
  VSB - VISIBILITY
$$



USA.gov is the U.S. government's official web portal to all federal, state and local government web resources and services.